Home   Weather   Elverum   Past weeks

Flag for Norway Past Weather in Elverum, Norway — Yesterday and Last 2 Weeks

Now
33 °F

Chilly.


Feels Like: 27 °F
Forecast: 26 / 43 °F
Wind: 7 mph from North

Location: Haugedalshogda

Current Time: Apr 25, 2017 at 10:49:17 am

Latest Report: Apr 25, 2017 at 9:00 am


Visibility: N/A

Pressure: 29.54 "Hg

Humidity: 61%

Dew Point: 21 °F

Location of ElverumLocation

Past Weather in Elverum — Graph

°F

Elverum Temperature Yesterday

Maximum temperature yesterday: 34 °F (at 11:00 pm)
Minimum temperature yesterday: 24 °F (at 12:00 am)
Average temperature yesterday: 29 °F

High & Low Weather Summary for the Past Weeks

 TemperatureHumidityPressure
High54 °F (Apr 20, 5:00 pm)94% (Apr 14, 11:00 pm)30.62 "Hg (Apr 14, 11:00 pm)
Low10 °F (Apr 18, 6:00 am)20% (Apr 23, 3:00 pm)29.41 "Hg (Apr 10, 9:00 am)
Average33 °F66%29.88 "Hg
* Reported Apr 10 9:00 am — Apr 25 9:00 am, Elverum, Weather by CustomWeather, © 2017

Note: Actual official high and low records may vary slightly from our data, if they occured in-between our weather recording intervals... More about our weather records

Advertising

Elverum Weather History for the Previous 24 Hours

Scroll right to see more
 ConditionsComfort  
Time TempWeatherWind HumidityBarometerVisibility
9:00 am
Tue, Apr 25
33 °FChilly.7 mph61%29.54 "HgN/A
8:00 am33 °FChilly.7 mph66%29.54 "HgN/A
7:00 am33 °FChilly.7 mph64%29.53 "HgN/A
6:00 am33 °FChilly.8 mph61%29.50 "HgN/A
5:00 am33 °FChilly.8 mph62%29.47 "HgN/A
4:00 am32 °FChilly.8 mph66%29.47 "HgN/A
3:00 am32 °FChilly.7 mph70%29.47 "HgN/A
2:00 am33 °FChilly.7 mph66%29.47 "HgN/A
1:00 am33 °FChilly.7 mph71%29.44 "HgN/A
12:00 am33 °FChilly.6 mph67%29.44 "HgN/A
11:00 pm
Mon, Apr 24
34 °FChilly.7 mph66%29.44 "HgN/A
8:00 pm33 °FChilly.6 mph74%29.44 "HgN/A
7:00 pm33 °FChilly.6 mph75%29.44 "HgN/A
6:00 pm33 °FChilly.6 mph75%29.44 "HgN/A
5:00 pm32 °FChilly.5 mph82%29.47 "HgN/A
4:00 pm32 °FChilly.5 mph81%29.47 "HgN/A
3:00 pm32 °FChilly.3 mph83%29.47 "HgN/A
2:00 pm31 °FChilly.5 mph85%29.50 "HgN/A
1:00 pm30 °FChilly.3 mph88%29.54 "HgN/A
12:00 pm29 °FChilly.5 mph88%29.55 "HgN/A
11:00 am29 °FChilly.2 mph86%29.57 "HgN/A
10:00 am29 °FChilly.2 mph84%29.59 "HgN/A
Weather by CustomWeather, © 2017

See weather overviewHow to use our weather pages